Temperature
11 11 11 11 11 11 11 11 11 11 11 10 10 11 11 10 10 10 10 11 11 11 11 11 11 10 10 10 10 10 10 10 10 10 10 10 10 10 10 10 10 10 10
10 10 10 10 10 10 10 10 10 10 10 10 10 10 10 10 10 10 10 10 10 10 10 10 10 10 10 10 10 9 9 9 9 9 9 9 9 9 9 9 9 9 9
10 10 10 10 10 10 9 10 10 9 10 10 10 10 10 9 9 10 10 10 10 10 10 10 10 10 9 9 9 9 9 9 9 9 9 9 9 9 9 9 9 9 9
9 9 9 9 9 9 9 9 9 9 9 9 9 9 9 9 9 9 9 9 9 9 9 9 9 9 9 9 9 8 8 8 8 8 8 8 8 8 8 8 8 8 8
9 9 9 9 8 8 8 8 8 8 8 8 8 9 9 9 9 9 9 9 8 8 9 9 8 8 8 8 8 8 8 8 8 8 8 8 8 8 8 8 8 8 8
8 8 8 8 8 8 8 8 8 8 8 8 8 8 8 8 8 8 8 8 8 8 8 8 8 8 8 8 8 8 7 7 7 7 7 7 7 7 7 7 7 7 7
8 8 8 7 7 7 7 7 7 7 7 7 7 7 7 7 7 7 7 7 7 7 7 7 7 7 7 7 7 7 7 7 7 7 7 7 7 7 7 7 7 7 7
7 7 7 7 7 7 7 7 7 7 7 7 7 6 6 6 7 7 7 7 7 7 7 7 7 7 7 7 7 7 6 6 6 6 6 6 6 6 6 6 7 6 7
7 7 7 7 6 6 7 6 6 6 6 6 6 6 6 6 6 6 6 6 6 6 6 6 6 6 6 6 6 6 6 6 6 6 6 6 6 6 6 6 6 6 6
6 6 6 6 6 6 6 6 6 6 6 6 6 6 5 5 5 5 5 5 5 5 6 6 5 5 5 5 5 5 5 5 5 5 5 5 5 5 5 5 5 5 5
6 6 6 5 6 5 5 5 5 5 5 5 5 5 5 5 5 4 4 5 5 5 5 5 5 5 5 4 4 5 5 5 5 5 5 4 4 4 4 4 5 5 5
5 5 5 5 5 5 5 5 5 5 5 5 5 5 5 4 4 4 4 4 4 4 4 4 4 4 4 4 4 4 4 4 4 4 4 4 4 4 4 4 4 4 4
5 5 5 4 4 4 4 4 4 4 4 4 4 4 4 4 4 4 3 3 3 3 4 4 4 4 4 4 4 4 4 4 4 3 3 3 3 3 3 3 3 3 3
4 4 4 4 4 4 4 4 4 4 4 4 4 4 4 4 3 3 3 3 2 2 3 3 3 3 3 3 3 3 3 3 3 3 3 3 3 3 3 3 3 3 3
4 4 4 4 3 3 4 3 4 3 3 3 3 3 3 3 3 3 2 2 2 2 2 2 2 3 3 2 3 2 3 3 3 3 2 2 2 2 2 2 2 2 2
3 3 3 3 3 3 3 3 3 3 3 3 3 3 3 3 2 2 2 2 2 2 1 2 2 2 2 2 2 2 2 2 2 2 2 2 2 2 2 2 2 2 2
3 3 3 3 3 3 2 2 2 2 2 2 2 2 2 2 2 2 1 1 1 1 1 2 2 1 2 2 2 2 2 2 2 1 1 1 1 1 1 1 1 1 1
2 2 2 2 2 2 2 2 2 2 2 2 2 1 1 1 1 1 1 1 1 1 0 1 1 1 1 1 1 1 1 1 1 1 1 1 1 1 1 1 1 1 1
2 2 2 2 2 2 1 1 1 1 1 1 1 1 1 1 1 1 1 0 0 0 -0 -0 0 0 0 0 0 1 1 0 0 0 1 0 0 0 0 0 0 0 0
1 1 1 1 1 1 1 1 1 1 1 1 1 1 1 0 0 0 0 -0 -0 -0 -0 -1 -1 -0 -0 -0 -0 -0 -0 -0 -0 -0 -0 -0 -0 -0 -0 -1 -1 -1 -0
0 1 1 1 1 0 0 1 1 0 0 0 0 0 0 0 -0 -0 -0 -0 -1 -1 -1 -1 -1 -1 -1 -1 -1 -1 -1 -1 -1 -1 -1 -1 -1 -1 -1 -1 -1 -1 -1
0 0 0 0 0 0 0 0 0 0 0 -0 -0 -0 -0 -0 -0 -1 -1 -1 -1 -1 -1 -1 -1 -1 -1 -1 -1 -2 -2 -2 -2 -1 -1 -1 -1 -1 -1 -1 -1 -1 -1
-0 -0 -0 -0 -0 -0 -0 -0 -0 -0 -0 -0 -1 -1 -1 -1 -1 -1 -1 -1 -1 -1 -2 -2 -2 -2 -2 -2 -2 -2 -2 -2 -2 -2 -2 -2 -2 -2 -2 -2 -2 -2 -2
-1 -1 -1 -1 -1 -1 -1 -1 -1 -1 -1 -1 -1 -1 -1 -1 -1 -1 -1 -1 -1 -2 -2 -2 -2 -2 -2 -2 -2 -2 -2 -2 -2 -2 -3 -2 -2 -2 -2 -2 -2 -2 -2
-1 -1 -1 -1 -1 -1 -1 -1 -1 -2 -1 -2 -2 -2 -2 -2 -2 -2 -2 -2 -2 -2 -2 -2 -2 -2 -2 -2 -3 -3 -3 -3 -3 -3 -3 -3 -3 -3 -2 -2 -2 -2 -2
-2 -2 -2 -2 -2 -2 -2 -2 -2 -2 -2 -2 -2 -2 -2 -2 -2 -2 -2 -2 -2 -2 -2 -2 -2 -2 -3 -3 -3 -3 -3 -3 -4 -4 -3 -4 -3 -4 -4 -3 -3 -3 -3
Wind_Speed
2 2 2 3 2 3 2 1 2 2 2 1 1 2 2 3 4 4 3 3 3 2 1 1 2 2 3 3 4 4 4 4 4 4 5 6 6 7 7 8 8 9 9
2 2 2 2 2 2 2 2 1 1 1 1 1 2 2 2 3 3 3 2 1 1 1 2 2 3 3 4 4 5 5 5 5 5 6 6 7 7 7 8 8 9 9
2 2 2 2 1 1 1 2 2 2 1 1 0 1 1 2 2 3 2 2 2 0 1 2 2 3 4 4 4 4 5 6 6 6 7 7 8 8 8 8 8 9 9
2 2 1 1 1 1 1 1 1 1 0 0 1 0 1 1 1 2 1 1 1 1 1 2 3 3 4 4 5 5 6 6 7 7 8 8 9 9 9 9 10 10 10
2 2 1 1 1 1 1 0 0 0 0 0 1 1 0 0 0 1 1 1 0 1 1 2 3 4 4 5 6 6 7 7 8 8 8 9 9 10 10 10 11 11 11
2 2 1 1 0 1 0 0 0 0 1 0 1 1 1 1 1 1 2 1 1 1 1 2 2 3 4 5 6 7 8 8 9 9 9 10 10 10 11 11 11 12 12
2 1 1 1 1 1 1 1 0 1 0 0 1 1 2 2 2 2 1 1 1 1 2 2 2 2 3 5 6 7 8 8 9 10 10 10 11 11 11 11 12 12 13
2 2 2 2 1 1 1 1 1 1 0 1 0 0 1 2 2 2 1 1 1 1 1 1 2 2 2 2 4 6 7 9 10 10 11 11 12 12 12 12 12 12 12
2 1 1 1 1 2 2 1 2 2 2 1 0 1 1 2 2 2 2 2 1 1 1 2 2 2 2 2 2 5 7 9 10 10 11 12 12 13 13 12 12 13 13
1 1 1 1 1 1 2 2 2 1 2 1 1 1 0 0 1 2 2 2 2 2 2 2 2 2 2 2 2 4 7 9 10 10 11 12 12 12 13 13 13 13 13
2 2 1 1 1 1 2 2 1 1 1 2 1 1 1 2 1 2 3 3 3 2 2 2 2 1 2 2 2 4 7 8 9 10 11 12 12 13 12 12 13 13 13
2 2 1 1 1 1 1 1 2 2 2 1 1 1 1 1 1 1 2 3 3 3 3 2 1 1 2 2 3 5 7 8 9 9 10 11 12 12 12 13 13 13 13
1 2 1 1 1 1 1 1 1 2 1 1 2 1 1 1 1 2 2 3 3 3 2 2 1 1 2 2 4 5 6 7 8 9 9 10 11 11 12 12 13 13 13
2 2 3 2 2 1 1 1 1 1 1 1 2 2 1 2 2 2 2 2 3 3 2 2 1 1 3 3 4 5 6 8 9 9 9 10 10 11 11 12 12 12 13
1 2 2 2 2 2 1 2 1 2 2 2 2 3 3 2 2 2 2 2 2 3 3 2 1 1 3 4 6 6 7 8 10 10 10 10 10 10 11 11 12 11 11
1 2 2 2 2 2 2 2 2 2 2 3 2 3 3 2 2 2 2 2 2 3 3 2 1 2 4 5 7 7 8 9 10 10 10 10 9 9 10 10 11 11 11
2 2 2 2 2 2 2 2 2 2 3 3 3 4 4 3 3 3 3 3 3 3 5 4 2 3 3 4 6 7 7 7 8 10 10 9 9 10 11 10 10 11 11
2 2 2 2 2 2 2 3 3 3 4 4 4 4 4 4 4 3 3 3 3 3 4 5 4 3 4 4 4 4 5 7 7 9 9 9 10 10 11 11 11 11 10
1 1 1 2 2 2 2 3 3 3 4 4 4 5 5 4 4 3 3 3 3 3 3 4 4 3 3 4 4 4 4 4 7 8 8 8 10 11 11 10 11 11 10
1 1 1 2 2 2 3 3 3 3 3 3 3 3 3 4 4 4 4 4 3 3 3 3 4 4 4 3 3 3 3 3 4 6 6 8 9 10 9 10 10 9 10
1 1 1 1 2 2 3 3 3 3 3 3 3 3 4 4 6 5 5 4 4 3 3 3 4 4 4 3 3 2 3 4 4 3 3 4 5 5 6 8 8 9 10
1 1 1 2 2 3 4 4 4 3 3 3 4 4 4 5 6 8 8 7 6 5 4 4 4 5 5 4 3 3 3 4 4 2 3 5 4 4 4 5 8 10 10
1 1 2 2 2 3 4 5 5 3 3 4 4 4 4 4 5 4 6 7 6 8 8 6 6 6 5 4 4 4 4 4 5 4 3 5 4 5 4 6 9 10 10
1 2 2 2 2 3 4 5 5 3 3 4 4 4 3 3 4 4 4 4 5 5 6 5 5 6 6 5 5 5 5 4 4 3 2 4 4 4 5 5 8 9 9
2 2 2 2 2 3 4 4 4 2 3 4 4 4 4 4 6 7 5 4 4 5 6 8 8 8 9 8 5 2 2 3 5 4 2 2 2 4 4 4 5 7 9
2 2 2 2 2 3 5 5 4 2 3 3 3 3 5 6 7 7 4 4 4 4 4 5 5 6 5 5 6 4 3 3 4 3 1 1 2 3 3 2 2 5 7
Wind_Direction
99 81 76 77 67 75 89 75 63 64 68 84 85 85 79 84 88 91 99 97 85 54 14 353 339 332 336 337 338 339 339 332 334 338 338 339 336 332 330 326 330 326 319
89 95 92 79 64 60 79 80 69 73 64 63 78 90 97 96 99 108 112 107 105 66 338 321 320 325 329 329 332 336 334 329 329 328 326 324 323 321 320 319 321 321 320
87 85 107 102 70 78 81 73 59 70 75 50 109 119 109 112 107 96 114 130 121 114 306 304 302 308 308 314 319 325 333 335 328 324 321 317 316 314 313 315 313 314 315
97 83 101 102 81 86 64 92 98 72 59 18 315 310 72 81 89 102 90 104 146 176 252 288 292 301 305 308 310 315 317 320 322 323 323 321 319 315 312 312 308 308 310
125 107 115 83 93 74 50 56 105 153 171 294 285 292 244 150 216 143 136 116 77 196 212 265 272 283 295 302 303 307 309 309 312 315 317 317 317 315 314 310 307 306 307
134 127 126 121 117 128 97 116 193 224 188 233 317 327 294 257 249 228 226 182 204 253 252 246 252 264 274 288 297 303 305 308 310 312 311 311 312 312 313 313 310 306 305
139 130 144 157 142 160 189 202 238 198 237 79 41 341 306 265 249 251 239 218 211 235 252 243 248 262 259 270 285 297 304 305 306 306 308 309 309 309 311 313 314 309 306
145 171 163 171 171 178 188 212 221 183 273 68 114 269 294 305 288 255 240 253 256 262 258 282 288 297 288 272 287 292 298 305 306 305 308 310 309 309 309 312 314 313 312
158 156 172 174 177 180 196 212 216 182 188 257 186 168 201 249 304 301 274 255 254 264 268 269 278 288 303 311 319 314 308 309 309 307 308 309 310 310 310 310 311 312 313
147 138 152 161 178 183 193 215 224 200 167 200 303 319 279 229 236 290 295 276 272 272 269 295 293 287 288 297 312 315 312 313 312 311 308 309 309 312 315 314 312 312 314
133 135 141 139 168 198 191 187 201 195 189 187 196 252 304 320 273 232 271 288 296 280 281 288 277 296 315 300 294 308 310 311 309 308 308 308 309 311 314 317 318 315 315
141 138 144 133 144 155 183 185 190 188 203 192 196 203 213 231 258 250 260 277 284 283 282 283 274 303 311 311 309 310 303 310 306 304 306 307 309 311 315 316 317 318 316
169 173 161 162 165 162 172 168 177 198 197 197 205 216 228 252 263 259 253 273 280 283 271 269 281 301 316 338 320 310 304 307 306 306 310 311 309 312 314 314 316 318 320
180 161 168 174 176 171 180 161 177 190 179 208 226 219 231 247 248 246 242 255 286 285 263 264 307 8 353 329 315 311 304 301 299 299 304 304 304 307 310 312 313 312 316
165 153 162 169 176 178 181 188 190 204 197 208 221 226 231 238 242 247 246 236 224 260 270 262 285 330 332 316 309 306 301 298 297 295 295 299 300 303 307 310 310 310 314
158 159 169 175 188 196 200 199 204 214 216 225 225 228 235 238 237 243 243 247 234 236 260 269 283 302 318 312 304 306 298 299 299 297 296 299 302 306 308 310 310 311 314
170 181 180 188 203 213 215 213 217 219 224 233 238 234 238 234 231 236 236 234 238 233 256 277 283 305 305 298 303 303 303 298 295 298 298 301 307 305 304 304 306 308 311
180 190 182 201 216 227 225 223 230 229 226 231 240 237 239 239 235 233 230 234 238 237 247 273 289 291 288 290 295 300 309 304 301 298 298 300 306 307 306 307 309 308 310
206 217 207 222 234 239 237 239 238 237 240 241 244 241 239 236 242 239 235 239 245 258 250 266 280 285 292 298 300 301 305 305 303 295 297 303 306 308 309 312 312 312 315
243 240 237 237 233 241 247 248 249 250 252 250 252 247 244 236 237 237 239 239 242 253 260 268 278 287 290 291 289 299 308 303 301 304 304 309 309 307 306 308 311 314 318
275 252 248 259 252 240 242 247 257 256 248 252 259 254 250 243 247 244 243 232 234 245 252 263 274 283 282 288 285 289 300 308 302 297 311 309 310 305 305 306 311 315 319
274 258 245 246 259 260 257 256 258 255 252 250 256 258 254 249 257 258 256 252 245 241 245 252 263 271 272 276 284 289 299 308 301 300 316 301 299 291 294 299 306 314 317
273 275 267 257 264 266 263 268 271 268 257 258 258 260 270 265 263 246 253 259 264 265 256 253 259 264 269 269 268 276 280 284 280 283 303 294 296 293 298 297 303 310 316
265 270 276 271 273 277 274 277 283 273 260 259 260 256 255 272 262 251 240 244 251 259 261 260 252 259 262 259 253 260 268 281 285 282 286 285 294 293 304 299 297 309 318
271 271 270 262 267 278 280 281 284 283 266 263 263 257 251 258 265 258 248 245 255 263 269 267 263 263 265 266 271 269 266 281 292 289 282 271 288 305 296 285 296 313 320
265 271 273 267 265 273 284 281 278 266 264 271 273 263 254 257 264 259 244 239 256 265 274 283 279 274 269 261 261 248 233 253 281 281 263 282 290 321 308 287 296 312 313
Height
1515 1516 1517 1518 1519 1520 1521 1522 1523 1524 1524 1525 1526 1527 1527 1528 1528 1529 1529 1530 1530 1531 1531 1531 1531 1531 1531 1531 1531 1531 1530 1530 1530 1529 1529 1528 1528 1527 1526 1526 1525 1525 1524
1513 1514 1515 1516 1517 1518 1519 1520 1521 1521 1522 1523 1524 1524 1525 1526 1526 1527 1527 1527 1528 1528 1529 1529 1529 1529 1529 1529 1529 1528 1528 1528 1527 1527 1526 1526 1525 1525 1524 1523 1523 1522 1521
1511 1512 1513 1514 1515 1516 1517 1518 1518 1519 1520 1521 1521 1522 1523 1523 1524 1524 1524 1525 1525 1526 1526 1527 1527 1527 1526 1526 1526 1525 1525 1525 1524 1524 1524 1523 1522 1521 1521 1520 1520 1519 1518
1509 1510 1511 1511 1512 1513 1514 1515 1516 1517 1517 1518 1519 1519 1520 1521 1521 1521 1522 1522 1522 1523 1523 1524 1524 1524 1523 1523 1523 1523 1522 1522 1521 1521 1521 1520 1519 1518 1518 1517 1516 1515 1514
1506 1508 1509 1509 1510 1511 1512 1513 1514 1514 1515 1515 1516 1517 1517 1518 1518 1518 1519 1519 1519 1520 1520 1520 1520 1520 1520 1520 1520 1519 1519 1518 1518 1517 1517 1516 1516 1515 1514 1513 1512 1511 1510
1504 1505 1506 1507 1508 1509 1510 1510 1511 1512 1512 1513 1513 1514 1514 1515 1515 1515 1516 1516 1517 1517 1517 1517 1517 1517 1517 1517 1516 1516 1515 1515 1514 1514 1513 1513 1512 1511 1510 1509 1508 1507 1506
1501 1502 1503 1504 1505 1506 1507 1507 1508 1509 1510 1510 1511 1511 1511 1512 1512 1512 1513 1513 1513 1514 1514 1514 1514 1514 1513 1513 1512 1512 1511 1511 1510 1510 1509 1509 1508 1507 1506 1505 1504 1503 1502
1498 1499 1500 1501 1502 1503 1504 1505 1506 1506 1507 1508 1509 1509 1509 1510 1509 1509 1509 1510 1510 1510 1510 1511 1510 1510 1510 1509 1509 1508 1507 1507 1506 1505 1505 1504 1503 1503 1502 1501 1499 1498 1497
1495 1496 1497 1498 1499 1500 1500 1501 1502 1503 1504 1505 1506 1507 1507 1506 1506 1506 1506 1507 1507 1507 1507 1507 1507 1506 1506 1506 1505 1504 1504 1503 1502 1501 1500 1500 1499 1498 1497 1496 1495 1494 1492
1491 1492 1494 1495 1496 1496 1497 1498 1499 1500 1501 1501 1503 1504 1505 1504 1505 1503 1503 1504 1504 1504 1504 1504 1503 1503 1503 1502 1501 1501 1500 1499 1498 1497 1496 1495 1494 1493 1492 1491 1490 1489 1488
1489 1490 1490 1491 1492 1493 1494 1495 1495 1496 1497 1498 1499 1500 1501 1501 1502 1501 1500 1500 1501 1501 1500 1500 1500 1500 1499 1498 1498 1497 1496 1495 1494 1493 1492 1490 1489 1489 1487 1486 1485 1484 1483
1485 1486 1487 1488 1489 1489 1490 1491 1492 1493 1494 1495 1496 1497 1497 1498 1498 1498 1498 1497 1497 1497 1496 1496 1496 1496 1495 1495 1494 1493 1492 1491 1490 1489 1487 1486 1485 1484 1483 1482 1480 1479 1478
1482 1483 1484 1485 1485 1486 1487 1487 1488 1489 1490 1491 1492 1493 1494 1494 1495 1495 1495 1494 1493 1493 1493 1492 1492 1492 1491 1491 1490 1489 1488 1487 1486 1484 1483 1482 1480 1479 1478 1477 1476 1475 1473
1479 1480 1481 1482 1482 1483 1483 1484 1484 1485 1486 1487 1488 1489 1490 1490 1491 1491 1492 1491 1490 1489 1489 1489 1488 1488 1488 1487 1486 1485 1483 1482 1481 1480 1479 1477 1476 1475 1474 1472 1471 1470 1469
1476 1477 1478 1478 1479 1479 1480 1480 1481 1482 1482 1483 1484 1485 1486 1486 1487 1487 1488 1488 1488 1486 1485 1485 1485 1484 1484 1483 1482 1480 1479 1478 1477 1475 1474 1473 1472 1471 1469 1468 1466 1465 1464
1473 1474 1474 1475 1476 1476 1477 1478 1478 1478 1479 1480 1481 1481 1482 1482 1482 1483 1483 1484 1484 1484 1482 1481 1481 1480 1479 1478 1477 1476 1475 1473 1472 1471 1470 1469 1468 1466 1465 1464 1462 1460 1459
1470 1470 1471 1472 1472 1473 1474 1474 1474 1475 1475 1476 1477 1477 1478 1478 1478 1479 1479 1479 1479 1479 1478 1477 1476 1476 1475 1474 1473 1472 1470 1469 1468 1467 1466 1464 1463 1462 1461 1460 1458 1456 1454
1466 1467 1468 1468 1469 1470 1470 1471 1471 1471 1472 1472 1473 1473 1473 1474 1474 1474 1475 1475 1475 1475 1474 1472 1472 1471 1471 1470 1468 1467 1466 1465 1464 1463 1461 1460 1459 1458 1457 1455 1454 1452 1450
1463 1464 1464 1465 1465 1466 1467 1467 1468 1468 1468 1469 1469 1469 1469 1469 1470 1470 1470 1470 1470 1470 1470 1469 1467 1467 1466 1465 1464 1463 1462 1461 1460 1458 1457 1456 1455 1454 1453 1451 1450 1448 1446
1461 1461 1461 1461 1462 1463 1463 1464 1464 1464 1465 1465 1465 1465 1465 1465 1465 1466 1466 1466 1466 1466 1465 1465 1464 1463 1462 1461 1460 1458 1457 1457 1456 1454 1453 1452 1451 1449 1448 1447 1446 1444 1442
1458 1458 1458 1459 1459 1460 1460 1460 1460 1460 1461 1460 1460 1460 1460 1461 1461 1461 1461 1461 1461 1461 1461 1461 1460 1459 1458 1457 1456 1454 1453 1452 1451 1450 1449 1448 1447 1445 1444 1443 1442 1440 1439
1455 1455 1455 1456 1456 1456 1457 1457 1457 1456 1456 1456 1456 1456 1456 1456 1456 1456 1457 1457 1457 1457 1457 1456 1456 1455 1454 1453 1453 1451 1450 1448 1446 1447 1445 1444 1443 1441 1440 1439 1438 1437 1435
1452 1452 1452 1453 1453 1453 1453 1453 1453 1452 1452 1452 1452 1451 1451 1451 1451 1452 1452 1452 1453 1453 1453 1453 1452 1451 1450 1450 1449 1448 1447 1445 1444 1443 1442 1439 1439 1437 1437 1436 1435 1434 1432
1450 1449 1449 1449 1449 1449 1449 1449 1449 1448 1448 1448 1448 1447 1447 1447 1447 1448 1448 1448 1448 1448 1449 1448 1448 1447 1447 1446 1445 1444 1443 1442 1441 1440 1439 1436 1435 1434 1433 1432 1431 1430 1429
1446 1446 1446 1446 1446 1445 1445 1445 1445 1444 1444 1444 1444 1444 1443 1443 1443 1444 1444 1444 1444 1444 1444 1444 1444 1443 1443 1443 1442 1440 1439 1438 1436 1436 1435 1434 1432 1430 1429 1428 1428 1427 1426
1443 1443 1443 1443 1442 1442 1442 1442 1442 1441 1440 1440 1440 1440 1440 1440 1440 1440 1440 1440 1440 1440 1440 1440 1440 1439 1439 1438 1438 1437 1435 1434 1433 1432 1432 1431 1429 1428 1425 1424 1424 1423 1422